星链-36932(STARLINK-36932)

导读

STARLINK-36932(NORAD编号:68331)是美国太空探索技术公司(SpaceX)所属的星链(Starlink)低轨卫星,采用Starlink V1.0平台。该卫星于2024年12月8日发射,截至2026年4月已在轨飞行约492天,运行在近地点355.149km、远地点356.989km近地轨道,轨道倾角43.001°,周期约91.66分钟。 作为SpaceX星链全球卫星互联网项目的组成部分,它为全球提供高速低延迟互联网服务,重点服务偏远地区,同时支持军事、航空等领域通信,助力缩小全球数字鸿沟。目前卫星状态正常,持续在轨运行。

Basic Information
目录编号:
68331
目录名称:
STARLINK-36932
国际标识:
2026-059L
轨道中心:
EARTH
卫星名称:
星链-36932
卫星全名:
星链-36932(STARLINK-36932)
卫星状态:
在轨 (已飞行167 天)
发射日期:
2026-03-22 UTC
国别 :
美国 (US)
星等 :
--
Orbit Information
数据来源 国际轨道数据 AOE轨道数据
星历时间 2026-09-05T11:52:31+0800
6小时前
查看轨道信息
2026-09-01T22:00:00+0800
3天前
查看轨道信息
半长轴 6840.867km 6840.927km
偏心率 0.0001014 0.0001532
轨道倾角 53.157° 53.159°
近地点辐角 106.616° 92.051°
升交点赤经 227.517° 244.245°
平近点角 253.496° 292.065°
近地点 462.036km 461.741km
远地点 463.424km 463.839km
周期 93.848分钟 93.850分钟
每日圈数 15.343911 15.343709
Detailed Information
固有亮度:
5
最大亮度:
2.5
卫星平台:
Starlink V1.0
覆盖范围:
全球
运营商:
太空探索技术公司
运营商所在国:
美国
制造商(研发单位):
太空探索技术公司
制造商所在国:
美国
使用方式:
暂无
Satellite Introduction
Starlink 计划是 SpaceX 推出的全球卫星互联网项目,通过发射低轨道卫星,为全球尤其是偏远地区提供高速、低延迟的互联网服务。自 2019 年起,Starlink 已部署数千颗卫星,旨在缩小全球数字鸿沟,推动互联网普及。该项目还为军事、航空等行业提供通信支持,带来广泛经济效益。
2D Orbit Map
3D Orbit Map
Orbit Altitude Analysis Chart
Orbit Inclination Analysis Chart
Orbit Comprehensive Analysis Chart
View Comprehensive Chart
Conjunction Data List
Event ID Objects TCA Miss Dist (km) Collision Risk Probability Collision Risk Index (CRI) Action
CDM_260905-234306-308106-833121
2026-09-05T
23:43:29+0000
0.884 km
远距离
1.835259E-5 中风险 0.6
CDM_260907-101804-765506-833122
2026-09-07T
10:18:53+0000
1.280 km
极远距离
7.478128E-6 低风险 0.52
CDM_260905-040306-809806-833121
2026-09-05T
04:03:07+0000
1.376 km
极远距离
6.492682E-6 低风险 0.51
CDM_260907-194705-300206-833121
2026-09-07T
19:47:46+0000
1.879 km
极远距离
2.790345E-6 低风险 0.44
CDM_260907-111905-270506-833121
2026-09-07T
11:19:50+0000
2.049 km
极远距离
2.380835E-6 低风险 0.43
CDM_260906-160005-305206-833121
2026-09-06T
16:00:49+0000
2.198 km
极远距离
2.249363E-6 低风险 0.42
CDM_260907-141905-300206-833121
2026-09-07T
14:19:28+0000
2.053 km
极远距离
2.225112E-6 低风险 0.42
CDM_260906-235306-619906-833121
2026-09-06T
23:53:18+0000
1.970 km
极远距离
2.188888E-6 低风险 0.42
CDM_260906-061005-702306-833121
OBJECT V (57023)
2026-09-06T
06:10:57+0000
2.582 km
极远距离
1.606048E-6 低风险 0.39
CDM_260905-110506-809806-833121
2026-09-05T
11:05:05+0000
2.270 km
极远距离
1.598691E-6 低风险 0.39